Location: Arborea
(39.7744°N, 8.5819°E)
Time: 02:41:06
(UTC+00:00)

PSLV R/B - Pass Details

Date: 24 October 2021
Orbit: 501 x 576 km, 97.8° (Epoch: 29 November)

Event Time Altitude Azimuth Distance (km) Brightness Sun altitude
Rises 16:57:55 0° 162° (SSE) 2,758 7.3 -5.4°
Reaches altitude 10° 17:00:04 10° 161° (SSE) 1,857 6.4 -5.8°
Maximum altitude 17:04:05 75° 75° (ENE) 582 3.8 -6.6°
Drops below altitude 10° 17:08:02 10° 351° (N) 1,832 6.5 -7.3°
Sets 17:10:09 0° 350° (N) 2,717 7.4 -7.7°
